Back to catalog

MOLNIYA 1-36

AliveCommunicationsHEO
NORAD 9880·PAYLOAD·🇷🇺 Russia

Launched Mar 24, 1977 from Plesetsk Cosmodrome

Loading…

Next Passes (next 24 hours)

TLE

FreshSource: Space-Track

Epoch: Sep 13, 2026, 15:39 UTC

1 09880U 77021A   26256.65237316  .00000657  00000-0  00000-0 0  9994
2 09880  63.7013 101.2885 6771358 280.7316  15.0652  2.00339069260443

Track MOLNIYA 1-36 in real time with AllMySat

Download on the App Store